User: anonymous   Login
Location: Melbourne
(37.8170°S, 144.9670°E)
Time: 08:14:31
(UTC+10:00)
Language:

ADEOS Rocket - Orbit

View from above orbital plane
View from above orbital plane
View from above satellite
View from above satellite

Ground track
Ground track

The orbit data is extracted from the following two-line orbital elements,

1 24279U 96046C   17114.90310045 +.00000028 +00000-0 +77651-4 0  9995
2 24279 098.7487 065.4557 0301093 064.5883 346.4213 13.47082342016791
Epoch (UTC): 24 April 2017 21:40:27
Eccentricity: 0.0301093
inclination: 98.7487°
perigee height: 858 km
apogee height: 1307 km
right ascension of ascending node: 65.4557°
argument of perigee: 64.5883°
revolutions per day: 13.47082342
mean anomaly at epoch: 346.4213°
orbit number at epoch: 1679

The dashed part of the orbit path shows where the satellite is in the earth's shadow,  

DLR